GFSGL_con_lsi_132.txt.gz
Lid_Strength_Index
7 6 5 4 3 3 2 2 2 2 2 2 2 2 2 2 2 2 2 2 3 3 3 3 4 4 5 6 8 8 9 10 11 13 13 12 12 12 11 12 12 13 13
10 10 10 9 7 5 3 3 3 2 1 1 2 2 2 2 2 3 3 3 3 4 4 5 5 7 6 8 9 9 9 12 13 15 14 14 13 12 12 13 12 13 14
10 10 10 9 9 9 7 5 4 3 3 3 3 2 2 2 2 2 3 3 4 3 4 5 6 8 8 9 10 10 11 12 13 14 15 13 13 12 14 14 14 14 13
10 10 9 10 9 9 9 8 7 6 5 5 5 4 3 3 3 3 4 4 5 4 5 6 5 8 8 9 10 12 12 13 14 14 15 14 14 13 14 15 16 15 14
10 10 10 10 10 10 10 9 7 7 7 6 5 6 5 6 7 7 7 6 6 7 8 7 7 8 9 8 10 14 13 13 14 14 15 15 14 15 14 15 16 15 15
10 10 10 10 11 11 10 10 9 9 8 8 8 7 6 7 8 8 7 7 8 9 9 9 9 12 12 11 11 12 12 13 14 14 14 14 14 14 14 15 15 16 17
10 10 11 11 11 11 11 11 11 10 10 10 10 10 9 9 8 8 9 9 9 9 10 12 14 13 13 13 12 12 12 11 11 13 14 14 14 14 14 14 15 15 16
11 11 11 12 12 12 12 11 11 10 11 10 10 10 11 11 9 8 9 11 12 13 12 13 14 13 12 13 14 13 13 13 13 13 13 13 13 13 13 14 14 15 15
11 11 12 12 14 12 12 11 11 11 12 12 12 12 12 12 10 9 11 12 13 13 14 13 13 13 12 12 13 14 14 15 12 12 12 11 11 11 12 14 16 17 18
12 12 12 13 14 13 12 12 13 13 13 13 13 13 13 12 10 10 11 13 13 14 14 13 13 13 12 11 13 14 15 15 14 15 14 12 12 12 11 13 14 16 17
13 13 14 15 15 13 12 13 13 13 13 13 14 14 13 13 12 10 11 13 13 13 14 15 15 12 11 12 12 14 14 14 14 14 14 14 14 14 14 13 13 13 16
16 16 17 16 13 13 13 13 13 13 13 13 14 14 14 14 12 10 11 12 12 13 14 14 13 12 11 12 13 12 12 13 14 15 15 15 15 14 14 15 14 14 14
18 15 14 14 13 13 13 13 13 13 13 14 14 14 15 14 13 11 11 11 12 14 13 13 11 11 11 12 12 12 13 14 15 15 15 15 15 14 15 17 17 17 16
15 15 15 14 13 13 13 13 13 13 13 14 14 14 14 14 14 13 13 12 12 13 13 13 12 12 12 12 13 12 13 13 14 14 15 14 15 16 16 16 17 18 17
15 16 14 14 13 14 14 14 14 14 13 13 13 13 14 14 13 12 12 13 13 13 13 13 13 13 14 14 14 13 13 13 14 14 14 15 15 16 16 17 17 18 18
16 17 18 15 15 15 15 15 12 12 11 11 11 12 13 12 11 11 11 11 11 12 14 14 14 14 14 14 14 14 14 14 13 13 13 14 15 16 15 17 17 17 17
19 20 21 20 19 18 21 20 18 16 13 12 11 11 11 11 11 10 10 10 11 11 16 14 14 15 14 14 14 14 14 14 13 13 13 14 14 14 16 16 17 17 17
22 21 21 22 22 23 22 23 21 18 18 17 13 12 11 11 11 10 10 10 12 12 13 14 14 13 14 13 13 13 13 13 14 13 13 14 14 15 16 17 17 17 17
20 21 23 24 24 24 24 24 24 21 19 18 16 14 15 11 11 10 10 12 13 12 12 12 12 12 12 12 12 12 13 13 14 14 15 15 15 16 16 17 17 17 17
17 16 16 16 16 16 16 16 16 15 15 15 15 15 17 16 14 13 13 13 12 14 14 13 11 11 12 12 12 12 13 13 14 15 15 15 16 16 17 17 17 17 18
24 19 18 19 18 18 18 19 18 18 18 18 19 20 14 15 15 15 15 15 15 14 14 14 14 13 13 12 13 14 14 15 16 16 16 17 17 17 17 16 16 16 16
25 26 26 27 27 27 30 30 30 30 31 30 30 27 18 27 28 25 23 21 21 19 18 17 17 18 18 18 17 18 19 19 19 19 18 18 18 17 17 17 17 18 17
27 27 28 29 28 28 28 30 29 29 29 31 29 29 31 30 29 29 27 27 26 24 23 22 22 22 23 22 21 20 20 21 19 18 18 18 19 19 18 18 18 18 18
28 27 28 29 29 29 30 31 31 30 31 32 33 32 31 31 30 28 29 29 27 26 26 26 27 26 25 25 25 23 21 20 20 20 18 19 19 18 18 19 19 19 19
30 29 29 30 30 31 31 31 32 33 33 31 31 30 31 30 31 31 31 31 30 29 28 28 29 28 30 30 29 28 27 23 21 21 21 20 20 21 21 20 21 21 19
28 27 28 29 31 32 30 30 33 31 31 30 31 32 31 30 29 30 30 30 29 29 29 29 28 27 27 28 28 25 23 19 22 20 21 22 22 22 20 20 20 20 20

GFSGL_con_lsi_135.txt.gz
Lid_Strength_Index
5 5 4 4 4 3 3 3 3 3 3 2 2 2 2 2 1 2 2 2 2 2 2 3 3 3 3 3 3 3 4 4 6 13 13 13 13 13 13 13 11 11 11
11 10 9 8 8 7 5 4 4 3 2 1 2 2 1 1 1 2 2 2 2 2 3 3 3 3 3 3 4 5 5 6 8 14 14 14 14 13 13 13 13 12 12
11 11 11 11 11 10 10 9 8 6 5 4 2 2 1 2 2 2 2 2 2 2 2 3 3 4 4 5 5 5 6 8 10 13 15 14 14 14 14 14 13 13 13
11 10 11 11 10 10 10 10 10 9 8 7 6 4 3 2 2 1 3 2 2 2 3 3 3 4 4 5 6 7 9 12 13 13 15 15 14 15 15 15 15 14 14
11 11 11 11 11 11 11 11 9 8 8 8 8 7 6 5 5 5 6 5 5 4 5 6 6 6 9 7 7 8 9 11 12 14 15 15 15 15 15 15 15 15 15
11 11 12 12 12 12 12 12 11 10 10 9 9 9 9 8 8 8 7 5 6 7 6 8 9 11 10 9 9 9 9 12 14 14 14 14 14 15 15 15 15 16 17
12 12 13 12 12 12 12 12 12 12 10 10 9 9 10 9 8 8 9 9 9 9 10 10 11 12 13 12 11 10 11 10 11 12 14 14 14 14 14 15 15 15 15
13 12 12 12 12 12 12 12 11 11 11 12 11 11 11 10 9 9 9 10 11 11 11 11 12 12 12 13 13 14 13 13 13 13 13 14 14 14 13 14 15 15 15
12 12 12 12 14 12 12 11 11 13 12 14 13 14 13 12 10 9 10 12 12 12 13 12 12 12 11 11 13 14 14 14 12 11 12 12 12 12 13 14 16 16 17
12 12 13 13 14 13 11 12 13 13 13 13 13 13 13 13 11 9 10 13 13 14 13 13 13 13 10 11 12 13 14 14 14 15 14 13 12 12 12 14 15 16 17
13 13 15 15 14 13 13 13 13 13 13 13 13 13 13 13 12 10 10 13 13 13 14 14 13 11 11 11 11 12 13 13 13 14 14 15 14 14 14 14 13 14 16
16 15 15 14 13 13 13 13 13 13 13 13 13 13 14 13 11 10 10 11 11 13 13 13 13 10 11 11 13 11 11 13 14 15 15 15 15 14 14 14 14 13 13
14 14 14 14 13 13 13 13 13 13 13 14 14 15 14 14 13 10 10 11 11 13 13 13 11 10 10 11 11 11 13 14 15 16 15 15 14 14 14 16 16 16 16
14 15 14 13 13 13 13 13 13 13 13 14 14 13 14 14 14 13 13 12 12 12 12 12 11 11 11 12 12 12 13 14 14 14 15 15 15 15 15 15 16 17 17
15 15 14 14 13 14 14 14 14 14 13 13 13 14 16 15 14 12 12 13 14 13 13 13 13 13 13 13 13 13 13 13 13 13 14 14 15 15 15 16 16 17 17
16 16 15 15 15 15 15 15 12 12 11 11 11 13 16 12 11 11 11 11 11 11 17 16 14 14 14 14 13 13 13 13 13 13 13 13 15 15 15 16 15 16 17
16 17 17 16 15 15 16 18 17 16 13 12 11 11 11 11 11 11 10 10 11 11 20 20 20 17 14 14 17 17 15 16 13 12 13 13 13 13 14 14 15 15 16
23 21 21 21 21 22 22 23 18 18 20 20 15 12 12 11 11 11 11 10 12 12 16 19 18 18 18 18 17 17 15 13 13 13 13 13 13 13 14 15 15 16 16
19 21 24 24 24 23 24 25 25 25 22 18 18 15 17 12 12 11 11 13 13 13 13 13 13 12 13 13 12 12 12 12 13 13 13 13 14 14 15 15 15 15 16
18 18 18 17 17 17 18 17 16 16 16 17 18 18 18 17 15 15 14 14 13 14 13 13 13 12 11 12 14 14 13 14 14 14 14 15 15 15 15 16 16 16 16
16 16 17 17 17 17 17 17 17 18 18 19 21 21 16 22 20 18 18 19 20 20 20 20 20 19 19 18 17 15 15 15 16 16 16 17 17 17 17 16 16 16 16
21 22 24 24 23 22 26 28 26 27 29 31 31 30 21 30 30 31 31 30 29 28 26 26 24 23 21 20 20 20 20 20 20 20 20 19 19 19 19 18 18 17 18
26 26 27 28 27 28 27 31 28 28 31 33 32 33 33 34 34 33 34 33 32 30 29 28 27 25 26 25 25 24 24 23 22 22 21 21 21 20 21 20 21 21 21
25 25 26 27 27 28 28 31 28 27 27 28 28 32 32 34 34 34 34 34 33 31 30 29 30 30 30 30 31 31 30 27 25 23 21 23 22 21 22 21 21 21 21
25 25 25 25 26 26 27 30 30 31 31 30 31 32 33 33 32 32 31 29 28 29 29 30 32 32 31 31 30 28 28 25 26 25 26 24 23 22 22 22 22 22 21
26 26 26 26 27 27 27 28 30 29 29 29 29 29 30 29 29 28 28 27 28 29 30 32 32 32 31 31 30 26 24 20 22 23 25 26 25 24 23 21 20 21 20

GFSGL_con_lsi_138.txt.gz
Lid_Strength_Index
5 4 4 4 4 4 4 4 4 4 3 3 2 2 2 2 1 1 1 1 2 2 2 2 3 2 2 2 3 3 3 3 5 6 11 13 12 13 13 12 12 12 11
7 6 6 6 6 5 5 5 4 2 2 2 1 1 1 1 1 2 2 1 2 2 2 2 3 2 3 2 2 3 3 3 3 5 12 13 13 12 13 13 13 12 12
12 11 11 11 11 11 11 10 9 9 8 7 6 4 3 2 2 2 1 2 1 1 1 2 2 2 3 3 2 3 3 4 8 12 13 14 14 12 13 14 14 14 13
11 11 11 11 11 11 11 11 11 10 9 8 7 7 6 5 5 5 4 3 2 1 3 4 4 3 3 3 3 4 7 10 11 12 14 14 13 14 13 15 15 15 15
11 12 12 11 11 11 11 11 10 9 9 9 8 8 7 7 7 7 7 6 5 4 5 5 5 7 10 8 7 7 9 12 13 13 14 14 14 14 14 14 15 15 16
12 12 12 12 13 13 13 12 11 10 9 9 10 9 10 10 9 9 9 8 7 7 7 7 7 10 9 8 7 7 7 10 12 12 13 13 13 13 14 15 16 16 17
11 12 13 13 13 14 13 13 13 12 11 12 11 11 12 10 9 8 9 10 10 9 10 10 10 11 11 11 9 9 10 8 9 10 12 12 13 13 13 15 15 15 16
13 13 14 14 14 14 13 13 11 12 12 12 13 13 13 12 9 9 9 10 11 11 11 11 11 11 11 12 12 12 13 13 12 12 12 13 12 12 13 13 14 16 16
13 14 14 14 15 13 12 11 11 13 13 12 12 13 13 12 10 9 10 12 12 12 12 12 11 12 11 10 12 13 13 13 11 11 11 11 11 11 12 14 15 16 17
14 14 14 15 13 13 12 12 13 13 13 13 13 13 13 12 11 9 11 13 13 13 13 13 12 12 10 10 12 13 13 13 13 13 12 11 11 11 11 13 14 17 17
15 15 16 15 13 13 13 13 13 13 13 13 14 14 13 13 12 9 10 13 13 14 14 13 13 10 10 10 10 12 12 12 12 13 13 13 13 13 14 14 13 14 16
16 16 16 14 13 13 12 13 13 13 13 13 13 13 16 15 12 10 10 11 11 16 15 15 13 10 10 10 11 10 10 12 13 13 14 14 15 14 13 14 14 14 13
16 15 15 13 13 13 13 13 13 13 13 14 14 15 17 16 14 11 10 10 11 15 15 13 11 10 10 11 10 10 12 14 17 17 16 18 16 13 13 13 15 14 14
15 15 14 13 13 13 13 13 13 13 13 14 15 18 19 15 14 16 15 16 14 14 13 13 11 11 11 12 12 12 15 17 18 18 16 14 14 14 14 14 16 16 16
15 15 14 13 14 14 14 13 14 14 14 14 19 19 19 19 14 12 12 13 15 13 13 13 13 13 14 14 13 13 13 13 14 14 17 14 14 15 16 15 15 16 17
15 15 14 14 14 14 15 15 12 11 11 11 11 15 18 13 11 11 11 11 11 12 18 15 15 15 15 15 14 14 14 14 14 13 13 13 15 14 14 16 15 15 16
15 15 15 14 14 15 15 15 17 17 12 11 11 11 11 11 11 11 11 11 11 12 15 16 17 16 15 15 15 14 14 16 17 16 14 14 14 14 15 14 16 15 15
16 15 15 15 15 16 17 17 17 19 20 21 15 13 12 12 12 11 11 11 13 13 14 15 15 15 14 19 20 19 19 18 18 15 14 13 13 13 13 14 14 15 15
18 19 20 21 22 21 22 23 23 24 18 16 18 16 15 12 12 12 12 13 14 14 14 14 14 14 13 13 13 13 13 13 16 15 16 14 14 13 14 15 15 15 15
18 18 17 18 19 19 19 18 16 15 16 17 19 19 21 15 16 17 19 19 19 19 20 19 19 21 20 19 18 17 16 16 15 15 15 16 16 16 16 17 17 17 18
16 16 16 16 15 15 15 15 16 17 18 20 22 20 18 24 22 23 23 24 26 27 28 29 28 26 25 25 25 24 23 21 20 19 18 19 19 20 19 18 19 19 19
17 17 17 17 17 18 20 20 20 22 24 29 33 29 22 31 32 33 35 35 35 34 33 32 30 30 30 29 28 27 27 25 24 23 23 22 20 21 21 20 20 19 20
21 22 23 24 25 27 28 28 27 28 29 31 33 32 32 32 32 32 33 35 34 33 34 33 33 32 33 32 32 31 29 28 27 26 24 24 24 23 23 22 22 22 21
25 25 25 26 26 27 27 28 29 29 29 31 31 32 31 32 33 33 33 33 33 32 34 35 35 34 33 32 32 32 32 31 31 30 28 26 26 24 25 23 21 20 20
25 25 25 25 25 26 27 27 28 28 28 27 29 30 32 32 31 32 33 32 31 32 32 32 33 33 32 30 30 29 29 26 28 28 31 30 28 28 26 25 23 23 22
25 25 26 26 26 26 26 26 27 27 28 27 27 28 29 30 30 32 31 31 30 30 30 31 31 31 30 31 31 27 24 20 22 23 23 28 27 28 26 25 24 25 23

GFSGL_con_lsi_141.txt.gz
Lid_Strength_Index
4 3 2 2 2 2 2 2 2 2 2 2 2 1 1 1 1 1 1 1 1 1 1 2 2 2 2 2 2 2 2 3 4 3 11 11 10 11 11 9 9 9 8
5 5 4 4 4 3 3 3 3 2 2 2 1 1 1 1 1 1 1 1 1 1 2 1 2 1 2 2 2 2 2 2 3 4 11 12 11 11 11 11 10 10 10
7 6 6 6 6 5 5 6 6 7 7 6 5 4 4 4 3 3 3 3 2 1 1 1 1 2 3 3 3 2 2 4 7 9 10 12 12 11 12 11 12 12 11
9 9 8 9 9 10 10 10 9 9 9 8 7 7 7 6 5 5 5 5 4 3 2 2 3 4 5 4 4 4 5 6 9 10 11 13 12 13 12 13 14 13 14
11 11 11 11 11 11 10 11 10 9 9 9 8 8 7 7 7 7 7 7 7 5 5 4 5 8 10 8 6 6 6 8 11 11 12 12 13 13 13 13 13 13 15
11 11 12 12 12 12 12 12 11 11 10 9 9 9 9 9 9 9 8 8 7 8 7 7 7 10 8 8 8 7 7 8 12 12 12 13 12 13 12 13 14 14 15
12 12 13 13 13 13 13 12 12 12 11 12 11 10 10 10 9 9 10 9 9 9 10 10 10 10 10 10 9 9 10 8 8 10 11 11 12 11 12 12 13 13 14
13 13 14 14 14 13 13 13 13 13 13 12 12 11 11 11 10 10 10 10 10 10 10 10 10 10 10 10 11 11 11 11 11 10 10 10 10 11 11 11 12 13 14
13 13 14 14 14 14 14 13 13 14 13 12 12 12 12 12 10 10 10 11 12 11 12 11 11 11 10 10 12 12 12 12 10 10 10 10 10 10 11 12 13 14 15
13 13 14 14 14 13 13 13 14 14 13 13 13 13 13 13 11 9 11 12 12 13 12 12 12 12 10 10 12 12 13 13 12 12 12 11 10 10 10 11 12 13 14
14 14 15 14 13 13 13 14 14 13 13 13 13 13 13 13 12 9 10 12 12 13 13 13 12 10 9 10 11 12 12 12 12 12 12 12 12 12 12 12 11 12 13
15 15 15 14 14 13 14 15 14 13 13 13 13 13 13 13 12 10 10 10 11 13 14 13 12 10 10 10 11 10 10 12 12 12 13 13 13 13 12 13 12 12 12
15 15 15 14 14 14 14 15 14 13 12 13 13 14 15 14 13 12 11 11 12 14 13 11 10 10 11 11 10 11 13 13 13 14 14 14 13 13 13 13 13 13 12
15 15 14 14 14 14 14 14 14 13 12 13 13 16 15 14 13 13 13 14 13 13 11 11 11 11 12 12 12 12 13 13 14 14 14 13 13 13 12 12 13 13 13
15 15 14 14 14 15 15 14 14 14 12 13 15 15 15 14 13 12 12 13 13 13 13 13 13 14 14 14 13 13 13 13 14 14 14 13 13 13 13 12 13 13 14
15 15 14 15 15 15 15 15 13 12 11 11 12 14 15 12 11 11 11 11 12 13 14 14 14 14 15 14 14 14 14 13 13 13 13 13 13 13 13 13 13 13 13
15 15 15 15 15 15 16 16 15 13 11 11 11 11 12 11 10 10 10 11 11 12 14 15 15 15 14 15 15 15 14 14 14 14 13 13 13 13 13 12 12 13 13
15 15 15 14 14 14 15 15 15 16 16 15 13 12 11 11 11 10 10 11 12 13 13 14 14 14 14 14 14 15 14 14 13 14 13 13 13 13 13 13 13 13 13
16 15 15 15 14 16 16 16 17 18 16 17 16 14 13 11 11 11 11 13 14 16 16 18 18 18 18 18 18 17 17 16 16 15 15 15 14 14 14 14 14 15 14
18 18 17 17 18 19 19 19 17 15 16 17 17 17 16 14 16 18 18 18 19 20 20 22 23 24 23 22 22 21 21 20 20 19 19 18 17 16 16 16 16 16 16
18 18 17 17 17 18 17 15 15 16 17 19 20 17 16 19 23 25 26 26 25 26 27 26 26 26 26 25 25 24 24 23 23 23 22 20 19 19 18 17 17 17 17
17 16 16 16 15 15 15 15 15 17 19 22 25 20 20 26 27 29 29 30 30 30 30 28 28 28 28 27 26 26 26 26 25 24 23 23 22 21 20 19 20 19 18
16 17 17 17 18 20 20 20 21 24 26 27 28 28 29 29 30 30 30 30 30 31 32 30 29 31 31 30 29 28 26 26 25 26 25 24 24 23 22 21 21 21 20
19 20 21 22 23 23 24 25 26 26 27 27 28 28 28 29 28 29 31 32 33 32 32 32 32 31 31 31 29 29 29 29 28 26 26 25 25 24 23 23 21 20 19
22 23 23 24 24 25 26 25 26 26 26 27 27 27 28 29 30 30 31 31 32 31 32 33 31 30 32 32 30 29 29 25 25 26 27 27 25 26 26 24 23 21 20
23 23 24 24 24 24 25 25 26 26 26 27 27 28 28 28 29 29 30 30 30 29 30 30 30 31 30 29 28 26 25 21 22 23 21 24 25 25 24 24 25 22 21

GFSGL_con_lsi_144.txt.gz
Lid_Strength_Index
1 1 1 1 1 1 1 1 0 0 0 0 0 0 0 0 0 0 0 0 1 1 1 1 1 0 1 1 1 1 2 2 4 3 7 9 8 8 9 8 8 8 7
2 1 1 1 1 1 1 1 0 1 0 0 0 0 0 0 0 0 1 1 1 1 1 1 1 1 1 1 1 2 2 2 3 4 9 10 9 8 8 10 9 9 8
3 2 2 2 2 1 1 1 0 0 1 1 1 1 1 1 1 2 2 3 2 1 1 1 1 1 2 2 3 3 2 3 4 6 6 10 9 10 11 11 11 11 10
4 3 3 3 2 2 2 2 3 4 4 4 4 3 3 4 4 5 6 5 4 4 3 3 2 3 3 4 4 4 5 4 5 6 10 10 10 12 12 12 13 13 12
5 5 4 3 3 4 5 6 6 6 6 6 6 6 6 6 7 7 7 7 6 6 6 6 5 9 10 7 6 4 4 5 8 9 10 11 12 13 13 12 12 13 12
6 5 5 7 8 8 8 8 8 8 8 8 8 8 8 10 11 10 8 6 7 7 7 7 7 10 8 9 8 8 8 7 10 10 10 11 11 11 11 12 12 13 14
7 8 9 9 10 9 10 10 9 9 9 9 10 9 9 10 10 9 10 8 7 7 8 9 9 9 10 9 9 9 10 9 8 8 10 10 11 10 11 12 12 13 13
9 10 11 11 11 11 11 11 11 11 11 11 11 10 10 11 11 10 10 8 8 9 9 10 10 10 10 10 10 11 11 11 11 10 9 9 9 9 10 11 12 13 14
11 11 12 11 12 11 11 11 12 12 12 12 13 12 13 13 10 10 10 10 11 11 11 10 10 10 10 10 11 12 12 12 10 10 9 9 9 10 10 11 13 12 13
11 11 12 12 12 12 12 12 12 13 13 13 14 13 14 14 10 10 10 11 12 12 11 11 12 11 10 10 12 12 12 12 11 11 11 11 10 10 11 10 11 11 12
11 13 13 13 12 12 12 12 13 13 13 13 14 14 14 13 11 10 10 11 11 11 11 12 11 10 10 10 11 11 12 11 12 12 11 11 11 11 11 11 10 11 11
13 13 14 14 13 13 14 13 13 13 14 14 15 14 14 14 12 10 10 11 11 12 12 12 11 10 10 10 11 10 11 11 13 12 12 13 13 12 12 12 12 12 12
14 14 15 14 14 14 14 14 14 14 13 14 14 14 15 15 12 10 11 11 12 12 11 11 10 11 11 11 11 12 13 12 13 13 14 13 13 12 12 12 12 12 12
14 14 15 15 14 14 13 13 13 14 13 13 13 14 16 15 13 12 12 12 12 11 11 11 11 12 12 12 12 12 13 13 13 13 14 12 12 12 12 12 12 12 12
14 14 14 14 14 14 13 13 13 12 12 13 14 15 15 15 13 12 12 13 13 12 13 12 13 13 13 13 13 13 13 13 13 14 14 14 13 12 12 12 12 12 13
14 14 14 14 14 14 14 14 13 13 13 13 13 14 14 12 11 11 11 12 12 12 13 13 14 13 14 13 13 13 13 13 13 13 13 13 13 13 13 12 12 13 13
13 14 14 14 14 14 14 14 15 14 13 13 13 13 12 12 11 11 11 12 12 12 13 14 13 13 13 13 13 13 14 13 13 13 13 13 13 13 13 13 12 13 13
13 14 14 14 14 14 14 14 15 15 16 15 13 12 12 11 11 11 11 11 13 12 12 13 13 13 13 13 13 13 13 13 14 14 14 13 14 14 14 14 14 14 14
14 14 14 14 14 15 15 15 15 15 16 15 14 12 12 11 10 10 11 12 13 13 13 14 13 14 15 15 16 16 16 16 16 15 15 16 15 15 15 15 15 15 15
14 14 14 14 15 15 16 16 16 17 16 16 15 14 13 13 13 14 13 13 13 14 14 16 17 18 18 18 18 18 18 18 18 18 18 18 17 17 17 16 16 16 15
15 15 15 15 16 16 16 17 16 16 16 16 14 14 13 13 14 15 16 15 16 17 18 19 20 20 21 21 20 20 20 20 21 20 20 19 20 19 18 17 17 16 16
16 16 16 16 16 17 16 15 15 16 16 17 17 15 14 16 17 18 18 20 21 21 21 21 22 22 23 22 22 21 22 22 22 22 21 22 21 19 19 19 19 18 18
16 16 16 17 16 16 15 15 16 17 19 19 19 19 19 19 20 21 22 23 24 25 25 24 24 25 26 25 24 23 22 23 23 23 23 22 21 20 20 20 19 20 19
16 16 17 17 17 18 19 20 20 20 21 21 21 21 21 22 22 23 24 25 26 26 26 27 26 26 27 25 25 25 25 25 24 24 24 22 21 21 21 21 20 20 20
20 20 20 20 20 21 22 22 21 22 22 23 22 23 23 24 25 25 25 26 26 26 27 27 27 27 27 27 27 26 26 26 24 23 22 23 22 22 23 22 21 20 20
22 22 22 22 22 21 21 22 22 23 23 24 24 24 25 25 25 25 26 26 27 27 27 27 27 27 27 27 26 26 26 23 22 22 20 20 21 21 22 21 21 21 19

GFSGL_con_lsi_147.txt.gz
Lid_Strength_Index
1 1 1 1 1 1 1 1 1 1 0 1 0 1 1 1 0 1 1 3 3 2 2 2 2 1 2 2 2 2 2 2 4 3 5 7 7 7 7 7 7 7 7
2 1 1 1 1 1 1 1 1 1 0 1 1 1 1 1 1 1 1 1 2 2 2 2 2 1 1 1 1 2 2 2 3 4 7 7 7 7 8 8 8 8 8
3 2 2 2 2 2 1 1 1 1 1 1 1 1 1 1 1 1 1 2 2 2 3 3 2 2 3 2 2 2 3 4 5 6 5 8 9 9 11 11 11 11 9
4 3 2 2 2 1 1 1 1 1 1 1 1 1 1 2 3 4 5 4 5 5 5 6 4 4 4 4 4 4 4 5 6 7 9 9 10 12 12 12 12 12 12
4 3 3 2 2 2 2 2 2 2 2 3 3 3 3 4 5 6 7 6 7 7 7 7 6 8 10 7 6 5 5 7 9 10 11 11 11 12 12 12 12 13 12
5 4 4 3 3 3 2 3 4 5 5 6 7 7 7 9 11 10 8 8 8 9 9 8 7 11 10 9 8 8 8 8 11 11 11 11 11 12 12 12 13 13 13
6 5 5 4 5 6 8 8 9 8 8 9 9 9 9 10 11 11 11 9 9 9 10 10 10 9 10 10 9 9 10 9 9 9 11 11 11 11 11 12 13 13 13
7 7 8 9 9 10 10 10 10 10 10 11 11 10 10 11 11 11 12 10 9 10 11 10 10 11 11 11 11 11 12 11 11 10 9 10 9 10 10 11 12 13 13
9 9 10 10 11 11 12 11 11 11 12 12 12 12 12 13 12 12 12 12 13 13 12 11 11 11 10 10 12 12 12 12 10 10 10 9 9 9 10 11 13 13 13
9 9 10 10 11 11 11 12 12 12 13 14 14 14 14 14 12 12 12 13 14 14 12 12 13 11 10 10 12 12 12 13 12 13 13 11 11 11 10 11 12 12 12
10 10 11 11 11 11 12 12 13 14 14 14 14 14 14 14 13 11 11 13 14 14 12 13 13 10 10 10 10 12 12 13 12 13 13 13 12 12 13 13 13 13 13
10 11 11 12 13 13 14 14 15 14 14 15 15 15 15 15 13 12 12 12 12 14 13 12 12 10 10 10 11 11 11 12 13 13 13 14 13 13 13 13 14 14 14
12 12 13 13 14 14 14 15 15 14 14 14 15 15 15 15 14 13 12 12 12 14 14 12 11 10 10 11 11 12 13 13 13 13 14 14 13 12 13 13 14 13 13
12 13 13 13 14 14 14 14 14 14 14 14 14 14 15 15 14 14 14 14 14 13 13 13 12 12 12 13 13 13 13 13 13 14 14 13 12 12 13 13 13 13 14
12 13 13 13 13 14 13 13 13 13 12 14 14 14 15 15 14 14 15 14 14 14 14 14 14 13 13 14 13 13 13 13 14 14 14 14 14 14 14 13 14 14 15
13 14 13 13 13 13 13 13 12 13 13 12 12 13 14 13 13 14 14 13 13 13 14 14 14 14 14 14 14 14 13 13 13 13 13 14 14 15 15 14 14 14 15
12 13 13 13 13 13 13 14 15 14 13 13 13 13 13 13 13 13 13 13 13 13 14 14 14 14 14 14 14 14 14 13 13 13 13 15 15 15 15 15 15 15 15
13 13 12 13 12 13 13 13 14 15 15 16 14 14 13 13 13 13 13 13 14 14 14 14 14 13 13 14 13 13 13 13 14 14 15 15 15 16 16 16 16 16 16
13 12 12 12 12 13 13 13 14 14 15 15 15 14 14 13 12 12 13 14 14 14 13 13 13 13 13 13 14 15 15 15 16 16 17 17 17 17 18 17 18 17 17
13 13 12 13 13 13 13 14 14 15 15 15 16 15 14 14 14 14 14 14 13 13 13 14 14 14 15 16 17 18 19 20 21 21 22 22 22 21 22 23 22 22 21
13 13 13 13 14 14 14 14 15 15 15 15 15 14 13 14 14 14 14 14 13 14 15 16 18 19 19 20 20 20 20 21 24 24 24 25 26 25 24 23 24 24 24
14 14 14 14 14 15 15 15 15 16 16 16 15 14 13 14 14 15 15 16 16 17 18 19 20 21 21 21 20 21 22 23 25 26 26 27 26 25 25 25 26 25 25
15 15 15 15 15 16 16 16 16 16 16 16 15 15 14 17 17 18 19 21 22 23 22 21 23 24 25 24 23 23 23 24 26 28 28 27 27 26 27 27 27 27 26
16 16 17 17 16 16 16 16 16 17 17 17 17 18 18 19 20 22 22 23 24 24 24 23 24 25 25 25 25 25 26 26 28 29 29 28 28 28 28 29 28 27 26
18 18 17 17 17 17 19 19 20 20 20 20 20 21 22 22 23 23 24 24 25 25 25 25 25 26 27 26 26 26 26 25 28 27 29 29 29 30 31 30 29 28 28
21 21 21 21 20 20 20 21 21 22 22 22 23 23 23 23 23 24 25 25 25 25 26 26 26 26 26 26 27 26 27 26 28 27 27 27 28 29 29 29 29 29 28